Location: Baix
(44.7118°N, 4.7648°E)
Time: 09:49:00
(UTC+00:00)

Vanguard 2 Rocket - Pass Details

Date: 27 November 2020
Orbit: 554 x 3325 km, 32.9° (Epoch: 21 January)

Event Time Altitude Azimuth Distance (km) Brightness Sun altitude
Rises 10:33:45 0° 259° (W) 7,282 11.5 22.9°
Reaches altitude 10° 10:39:04 10° 256° (WSW) 6,129 11.2 23.1°
Maximum altitude 10:56:25 51° 188° (S) 2,895 10.7 23.6°
Drops below altitude 10° 11:07:21 10° 116° (ESE) 3,997 10.7 23.9°
Sets 11:10:03 0° 111° (ESE) 4,674 10.9 23.9°
